EZS35KD LFSB-EKCH

Flight info

Callsign EZS35KD
Flight time N/A
Altitude 35000
Route DCT ELBEG Y715 HEUSE N851 TEDGO DCT HAREM DCT LOHRE DCT BERXO DCT MAKEL N851 GESKA Z711 MONAK MONAK5A
Aircraft A320/M-SDE3FGHIRWY/LB1

Departure

Time 2026-04-30 19:16
Airport EuroAirport Basel–Mulhouse–Freiburg (LFSB)

Arrival

Time N/A
Airport Copenhagen Kastrup Airport (EKCH)
Time Latitude Longitude Altitude Speed Heading
2026-04-30 18:58 47.59720 7.53218 894 ft 0 kts 65°
2026-04-30 19:00 47.59720 7.53217 894 ft 0 kts 65°
2026-04-30 19:08 47.59703 7.53164 894 ft 4 kts 65°
2026-04-30 19:08 47.59682 7.53099 894 ft 3 kts 64°
2026-04-30 19:08 47.59669 7.53065 894 ft 4 kts 53°
2026-04-30 19:09 47.59629 7.53030 894 ft 2 kts 337°
2026-04-30 19:09 47.59627 7.53031 894 ft 0 kts 335°
2026-04-30 19:11 47.59628 7.53031 894 ft 1 kts 335°
2026-04-30 19:11 47.59640 7.52995 894 ft 4 kts 276°
2026-04-30 19:12 47.59627 7.52941 894 ft 11 kts 244°
2026-04-30 19:12 47.59596 7.52845 892 ft 11 kts 241°
2026-04-30 19:12 47.59513 7.52852 892 ft 14 kts 154°
2026-04-30 19:13 47.59283 7.53012 895 ft 19 kts 154°
2026-04-30 19:13 47.59182 7.53181 893 ft 2 kts 97°
2026-04-30 19:13 47.59181 7.53186 895 ft 0 kts 97°
2026-04-30 19:14 47.59175 7.53215 895 ft 8 kts 115°
2026-04-30 19:14 47.59146 7.53285 895 ft 9 kts 90°
2026-04-30 19:14 47.59163 7.53412 887 ft 14 kts 77°
2026-04-30 19:14 47.59186 7.53558 887 ft 15 kts 77°
2026-04-30 19:15 47.59212 7.53718 887 ft 17 kts 77°
2026-04-30 19:15 47.59221 7.54010 888 ft 14 kts 122°
2026-04-30 19:15 47.59153 7.53974 889 ft 31 kts 252°
2026-04-30 19:16 47.59035 7.53225 890 ft 115 kts 257°
2026-04-30 19:16 47.58804 7.51750 995 ft 167 kts 255°
2026-04-30 19:16 47.58277 7.48400 2250 ft 181 kts 255°
2026-04-30 19:17 47.58068 7.46434 2442 ft 207 kts 274°
2026-04-30 19:17 47.60086 7.43369 3048 ft 239 kts
2026-04-30 19:17 47.61696 7.43934 3467 ft 247 kts 38°
2026-04-30 19:18 47.63285 7.47457 4612 ft 257 kts 70°
2026-04-30 19:18 47.64030 7.50836 5647 ft 264 kts 73°
2026-04-30 19:18 47.64563 7.53453 5948 ft 265 kts 73°
2026-04-30 19:19 47.65117 7.56061 6021 ft 265 kts 72°
2026-04-30 19:19 47.65697 7.58644 6038 ft 263 kts 72°
2026-04-30 19:19 47.66908 7.63707 6986 ft 269 kts 71°
2026-04-30 19:20 47.67552 7.66331 7784 ft 272 kts 70°
2026-04-30 19:20 47.68207 7.68985 8610 ft 274 kts 70°
2026-04-30 19:20 47.69546 7.74362 10188 ft 282 kts 70°
2026-04-30 19:21 47.70242 7.77147 10677 ft 297 kts 70°
2026-04-30 19:21 47.71800 7.83295 11044 ft 342 kts 70°
2026-04-30 19:22 47.73515 7.90077 12158 ft 356 kts 70°
2026-04-30 19:22 47.76120 8.00512 14269 ft 363 kts 70°
2026-04-30 19:23 47.78791 8.11186 16211 ft 367 kts 70°
2026-04-30 19:24 47.80576 8.18329 17334 ft 374 kts 70°
2026-04-30 19:24 47.81476 8.21956 17980 ft 375 kts 70°
2026-04-30 19:24 47.83293 8.29322 19043 ft 381 kts 70°
2026-04-30 19:25 47.86074 8.40602 20479 ft 390 kts 69°
2026-04-30 19:26 47.87956 8.48248 21412 ft 395 kts 69°
2026-04-30 19:26 47.89867 8.56022 22200 ft 402 kts 69°
2026-04-30 19:26 47.90828 8.59950 22651 ft 404 kts 69°
2026-04-30 19:27 47.92756 8.67860 23503 ft 408 kts 69°
2026-04-30 19:27 47.94704 8.75859 24212 ft 412 kts 69°
2026-04-30 19:28 47.95680 8.79879 24543 ft 414 kts 69°
2026-04-30 19:28 47.97645 8.88007 25181 ft 418 kts 69°
2026-04-30 19:29 47.99614 8.96186 25844 ft 420 kts 69°
2026-04-30 19:29 48.00590 9.00240 26183 ft 420 kts 69°
2026-04-30 19:30 48.04689 9.11686 27073 ft 422 kts 45°
2026-04-30 19:30 48.09609 9.16464 27585 ft 429 kts 22°
2026-04-30 19:31 48.15528 9.18106 28077 ft 437 kts
2026-04-30 19:31 48.18568 9.18606 28298 ft 439 kts
2026-04-30 19:31 48.24625 9.19603 28923 ft 437 kts
2026-04-30 19:32 48.27625 9.20098 29256 ft 436 kts 10°
2026-04-30 19:32 48.30658 9.20602 29603 ft 435 kts 10°
2026-04-30 19:32 48.33665 9.21105 29937 ft 434 kts 10°
2026-04-30 19:32 48.36664 9.21606 30271 ft 433 kts 10°
2026-04-30 19:33 48.39656 9.22110 30566 ft 432 kts 10°
2026-04-30 19:33 48.42643 9.22611 30856 ft 431 kts 10°
2026-04-30 19:33 48.45614 9.23112 31152 ft 430 kts 10°
2026-04-30 19:33 48.48586 9.23623 31443 ft 429 kts 10°
2026-04-30 19:34 48.51508 9.24132 31716 ft 428 kts 10°
2026-04-30 19:34 48.54495 9.24654 32027 ft 426 kts 10°
2026-04-30 19:34 48.60329 9.25663 32612 ft 424 kts 10°
2026-04-30 19:35 48.63265 9.26165 32903 ft 423 kts
2026-04-30 19:35 48.66193 9.26631 33195 ft 422 kts
2026-04-30 19:35 48.69109 9.27070 33488 ft 421 kts
2026-04-30 19:35 48.72023 9.27499 33767 ft 420 kts
2026-04-30 19:36 48.74928 9.27928 34061 ft 419 kts
2026-04-30 19:36 48.77833 9.28360 34342 ft 418 kts
2026-04-30 19:36 48.83601 9.29234 34830 ft 416 kts
2026-04-30 19:37 48.86479 9.29675 35064 ft 415 kts
2026-04-30 19:37 48.89356 9.30120 35257 ft 415 kts
2026-04-30 19:37 48.95124 9.31022 35321 ft 418 kts
2026-04-30 19:38 49.00919 9.31917 35324 ft 419 kts
2026-04-30 19:38 49.06723 9.32812 35325 ft 419 kts
2026-04-30 19:39 49.12481 9.33706 35329 ft 419 kts
2026-04-30 19:39 49.18278 9.34602 35326 ft 419 kts
2026-04-30 19:40 49.24077 9.35506 35332 ft 419 kts
2026-04-30 19:40 49.29877 9.36406 35315 ft 419 kts
2026-04-30 19:41 49.35687 9.37313 35320 ft 420 kts
2026-04-30 19:41 49.41514 9.38234 35323 ft 421 kts
2026-04-30 19:42 49.47363 9.39160 35328 ft 422 kts
2026-04-30 19:42 49.53217 9.40082 35335 ft 423 kts
2026-04-30 19:43 49.59071 9.41005 35341 ft 423 kts
2026-04-30 19:44 49.67855 9.42403 35350 ft 423 kts
2026-04-30 19:44 49.73724 9.43342 35354 ft 424 kts
2026-04-30 19:45 49.79589 9.44278 35356 ft 424 kts
2026-04-30 19:45 49.85419 9.45210 35359 ft 424 kts
2026-04-30 19:46 49.91292 9.46158 35363 ft 424 kts
2026-04-30 19:46 49.97157 9.47093 35370 ft 424 kts
2026-04-30 19:47 50.03031 9.48039 35373 ft 424 kts
2026-04-30 19:47 50.08855 9.49346 35372 ft 422 kts 14°
2026-04-30 19:48 50.14594 9.51272 35375 ft 422 kts 14°
2026-04-30 19:48 50.20337 9.53195 35377 ft 422 kts 14°
2026-04-30 19:49 50.26076 9.55128 35389 ft 422 kts 14°
2026-04-30 19:49 50.34652 9.58009 35397 ft 422 kts 14°
2026-04-30 19:50 50.40389 9.59942 35401 ft 422 kts 14°
2026-04-30 19:50 50.45193 9.61569 35401 ft 421 kts 14°
2026-04-30 19:51 50.50931 9.63517 35399 ft 422 kts 14°
2026-04-30 19:51 50.56625 9.65461 35398 ft 422 kts 14°
2026-04-30 19:52 50.62363 9.67415 35403 ft 422 kts 14°
2026-04-30 19:52 50.68110 9.69365 35412 ft 422 kts 14°
2026-04-30 19:53 50.73849 9.71331 35411 ft 422 kts 14°
2026-04-30 19:53 50.79592 9.73313 35417 ft 422 kts 14°
2026-04-30 19:54 50.85329 9.75300 35417 ft 422 kts 14°
2026-04-30 19:54 50.91070 9.77278 35418 ft 422 kts 14°
2026-04-30 19:55 50.96820 9.79260 35409 ft 423 kts 14°
2026-04-30 19:55 51.03310 9.81511 35416 ft 423 kts 14°
2026-04-30 19:56 51.08806 9.83424 35417 ft 424 kts 14°
2026-04-30 19:56 51.14570 9.85440 35422 ft 424 kts 14°
2026-04-30 19:57 51.20336 9.87470 35413 ft 424 kts 14°
2026-04-30 19:57 51.25994 9.90120 35416 ft 424 kts 20°
2026-04-30 19:58 51.31579 9.93201 35423 ft 424 kts 20°
2026-04-30 19:58 51.37163 9.96297 35425 ft 425 kts 20°
2026-04-30 19:59 51.42753 9.99395 35425 ft 425 kts 20°
2026-04-30 20:00 51.51150 10.04053 35430 ft 426 kts 20°
2026-04-30 20:00 51.55801 10.06653 35437 ft 426 kts 20°
2026-04-30 20:01 51.64195 10.11364 35444 ft 426 kts 20°
2026-04-30 20:01 51.69800 10.14507 35444 ft 426 kts 20°